Location: Buckenweiler
(49.0667°N, 10.2500°E)
Time: 19:43:02
(UTC+00:00)

NOAA 12 - Pass Details

Date: 12 April 2026
Orbit: 792 x 813 km, 98.6° (Epoch: 12 May)

Event Time Altitude Azimuth Distance (km) Brightness Sun altitude
Rises 03:44:55 0° 21° (NNE) 3,336 8.0 -8.4°
Reaches altitude 10° 03:47:29 10° 30° (NNE) 2,397 7.5 -8.1°
Maximum altitude 03:52:18 35° 96° (E) 1,282 5.9 -7.3°
Drops below altitude 10° 03:57:04 10° 161° (SSE) 2,368 6.5 -6.6°
Sets 03:59:34 0° 171° (S) 3,290 7.2 -6.2°
